Tracking 19283 objects as of 18-Nov-2018
HD Live streaming from Space Station
objects crossing your sky now

APRIZESAT 5

Track APRIZESAT 5 now!
10-day predictions
APRIZESAT 5 is classified as:


NORAD ID: 37792
Int'l Code: 2011-044E
Perigee: 610.8 km
Apogee: 692.0 km
Inclination: 98.4 °
Period: 97.6 minutes
Semi major axis: 7022 km
RCS: 0.107 m2 (medium)
Launch date: August 17, 2011
Source: United States (US)
Launch site: Orenburg, Russia (OREN)
aabbcc
Your satellite tracking list
Your tracking list is empty




NASA's NSSDC Master Catalog

Two Line Element Set (TLE):
1 37792U 11044E   18321.44384794  .00000074  00000-0  19126-4 0  9990
2 37792  98.4012 127.3069 0057857 201.9324 157.9406 14.75276588390271
Source of the keplerian elements: AFSPC